Marshalltown, IA

9:33 PM CDT on September 23, 2017 (GMT -0500)
Marshalltown Municipal

Weather History for KMIW - January, 2013

Change the Weather History Date:

Wednesday, January 23, 2013

  Actual Average Record
Temperature  
Mean Temperature 16 °F 19 °F  
Max Temperature 28 °F 28 °F 46 °F (2004)
Min Temperature 4 °F 10 °F -10 °F (2014)
Degree Days  
Heating Degree Days 49 46  
Month to date heating degree days 995 1058  
Since 1 July heating degree days 3546 3870  
Cooling Degree Days 0 0  
Month to date cooling degree days 0 0  
Year to date cooling degree days 0 0  
Moisture  
Dew Point 5 °F    
Average Humidity 63    
Maximum Humidity 73    
Minimum Humidity 53    
Precipitation  
Precipitation 0.00 in 0.03 in 0.06 in (2012)
Month to date precipitation 0.10 0.56  
Sea Level Pressure  
Sea Level Pressure 30.30 in    
Wind  
Wind Speed 15 mph (West)    
Max Wind Speed 29 mph    
Max Gust Speed 35 mph    
Visibility 10 miles    
Events      
T = Trace of Precipitation, MM = Missing Value Source: NWS Daily Summary

Daily Weather History Graph

Daily Weather History Graph

Search for Another Location

Airport or City:

Trip Planner

Search our weather history database for the weather conditions in past years. The results will help you decide how hot, cold, wet, or windy it might be!

Date:

Astronomy

Jan. 23, 2013 Rise Set
Actual Time 7:32 AM CST 5:15 PM CST
Civil Twilight 7:02 AM CST 5:45 PM CST
Nautical Twilight 6:28 AM CST 6:19 PM CST
Astronomical Twilight 5:55 AM CST 6:52 PM CST
Moon 2:25 PM CST (1/23) 4:45 AM CST (1/23)
Length of Visible Light 10h 43m
Length of Day
9h 42m
Waxing Gibbous, 89% of the Moon is Illuminated
Jan 23
Waxing Gibbous
Jan 26
Full
Feb 3
Last Quarter
Feb 10
New
Feb 17
First Quarter

Hourly Weather History & Observations

Time (CST) Temp. Windchill Dew Point Humidity Pressure Visibility Wind Dir Wind Speed Gust Speed Precip Events Conditions
12:53 AM 12.9 °F -0.2 °F 3.0 °F 65% 30.31 in 10.0 mi South 10.4 mph - N/A   Overcast
1:53 AM 12.9 °F 1.6 °F 3.9 °F 67% 30.30 in 10.0 mi South 8.1 mph - N/A   Overcast
2:53 AM 14.0 °F 3.9 °F 5.0 °F 67% 30.30 in 10.0 mi South 6.9 mph - N/A   Overcast
3:53 AM 15.1 °F 5.2 °F 5.0 °F 64% 30.26 in 10.0 mi SSW 6.9 mph - N/A   Overcast
4:53 AM 15.1 °F 2.5 °F 5.0 °F 64% 30.24 in 10.0 mi SSW 10.4 mph - N/A   Overcast
5:53 AM 16.0 °F 3.6 °F 6.1 °F 65% 30.22 in 10.0 mi SSW 10.4 mph - N/A   Overcast
6:53 AM 15.1 °F 2.5 °F 6.1 °F 68% 30.23 in 10.0 mi SSW 10.4 mph - N/A   Overcast
7:53 AM 14.0 °F 0.5 °F 6.1 °F 71% 30.21 in 10.0 mi SSW 11.5 mph - N/A   Overcast
8:53 AM 15.1 °F 2.5 °F 6.1 °F 68% 30.22 in 10.0 mi WSW 10.4 mph - N/A   Clear
9:53 AM 17.1 °F 3.6 °F 8.1 °F 68% 30.22 in 10.0 mi West 12.7 mph - N/A   Clear
10:53 AM 21.0 °F 7.6 °F 10.0 °F 63% 30.22 in 10.0 mi NW 15.0 mph - N/A   Clear
11:53 AM 24.1 °F 12.5 °F 10.9 °F 57% 30.22 in 10.0 mi NW 12.7 mph - N/A   Clear
12:53 PM 26.1 °F 13.1 °F 12.9 °F 58% 30.22 in 10.0 mi WNW 17.3 mph - N/A   Clear
1:53 PM 28.0 °F 14.9 °F 14.0 °F 56% 30.21 in 10.0 mi NW 19.6 mph 26.5 mph N/A   Partly Cloudy
2:53 PM 27.0 °F 12.8 °F 12.9 °F 56% 30.23 in 10.0 mi NW 21.9 mph 29.9 mph N/A   Scattered Clouds
3:53 PM 24.1 °F 8.7 °F 10.9 °F 57% 30.27 in 10.0 mi NW 23.0 mph 28.8 mph N/A   Partly Cloudy
4:53 PM 21.0 °F 5.7 °F 8.1 °F 57% 30.30 in 10.0 mi NNW 19.6 mph - N/A   Clear
5:53 PM 16.0 °F -2.8 °F 3.0 °F 57% 30.35 in 10.0 mi NW 25.3 mph 33.4 mph N/A   Clear
6:53 PM 12.0 °F -8.1 °F -0.9 °F 56% 30.40 in 10.0 mi NNW 25.3 mph 34.5 mph N/A   Clear
7:53 PM 8.1 °F -10.7 °F -2.0 °F 64% 30.43 in 10.0 mi NNW 18.4 mph 27.6 mph N/A   Clear
8:53 PM 7.0 °F -12.1 °F -2.0 °F 67% 30.46 in 10.0 mi NNW 18.4 mph - N/A   Clear
9:53 PM 5.0 °F -14.7 °F -5.1 °F 63% 30.50 in 10.0 mi North 18.4 mph 27.6 mph N/A   Clear
11:53 PM 3.9 °F -15.0 °F -6.0 °F 64% 30.56 in 10.0 mi North 16.1 mph - N/A   Clear